Total_Precipitation_Accumulation
1.14 1.12 1.13 1.12 1.03 0.93 0.88 0.82 0.73 0.67 0.63 0.60 0.61 0.60 0.60 0.62 0.65 0.70 0.71 0.74 0.80 0.79 0.77 0.75 0.73 0.72 0.75 0.78 0.84 0.93 1.06 1.18 1.28 1.18 0.99 0.90 0.91 0.93 0.99 0.90 0.87 0.81 0.74
0.94 1.01 1.05 0.98 0.92 0.85 0.77 0.71 0.67 0.60 0.58 0.59 0.61 0.59 0.54 0.52 0.56 0.62 0.65 0.66 0.75 0.77 0.76 0.76 0.72 0.70 0.72 0.73 0.77 0.82 0.95 1.09 1.20 1.25 1.10 0.97 0.92 0.88 0.85 0.81 0.71 0.66 0.67
0.77 0.77 0.84 0.82 0.78 0.73 0.63 0.58 0.54 0.52 0.53 0.52 0.51 0.51 0.50 0.48 0.48 0.48 0.51 0.55 0.63 0.69 0.71 0.77 0.78 0.76 0.73 0.73 0.76 0.82 0.93 1.05 1.17 1.21 1.13 1.02 0.98 0.95 0.97 0.89 0.81 0.86 0.74
0.70 0.69 0.72 0.71 0.69 0.69 0.61 0.56 0.49 0.46 0.46 0.45 0.41 0.40 0.44 0.42 0.37 0.35 0.38 0.41 0.46 0.50 0.55 0.69 0.76 0.74 0.73 0.78 0.82 0.87 0.93 1.05 1.12 1.14 1.07 0.99 0.99 1.00 1.03 1.06 1.02 0.97 0.85
0.68 0.70 0.72 0.67 0.63 0.67 0.67 0.60 0.52 0.48 0.43 0.44 0.41 0.35 0.36 0.33 0.29 0.30 0.31 0.30 0.37 0.41 0.44 0.54 0.61 0.64 0.66 0.70 0.73 0.80 0.91 1.05 1.12 1.15 1.08 1.02 0.97 1.06 1.09 1.04 1.00 1.02 0.90
0.64 0.72 0.77 0.75 0.72 0.73 0.76 0.72 0.64 0.57 0.50 0.43 0.39 0.36 0.33 0.28 0.27 0.26 0.28 0.32 0.37 0.44 0.50 0.52 0.51 0.53 0.53 0.51 0.58 0.66 0.79 0.97 1.12 1.17 1.13 1.09 1.03 1.05 1.11 1.09 1.08 1.10 1.07
0.72 0.72 0.75 0.78 0.80 0.78 0.74 0.73 0.70 0.62 0.55 0.48 0.39 0.36 0.35 0.26 0.21 0.19 0.22 0.31 0.41 0.48 0.53 0.53 0.44 0.44 0.53 0.56 0.57 0.59 0.70 0.82 1.01 1.19 1.22 1.13 1.08 1.08 1.18 1.22 1.16 1.16 1.13
0.78 0.75 0.69 0.67 0.68 0.64 0.63 0.66 0.64 0.59 0.54 0.49 0.39 0.32 0.32 0.21 0.16 0.16 0.19 0.26 0.33 0.36 0.37 0.43 0.51 0.54 0.48 0.50 0.52 0.63 0.71 0.82 0.91 1.01 1.14 1.06 0.99 1.02 1.10 1.14 1.07 1.03 0.98
0.73 0.68 0.60 0.53 0.54 0.54 0.56 0.57 0.54 0.52 0.50 0.42 0.36 0.33 0.34 0.26 0.18 0.15 0.18 0.26 0.29 0.28 0.26 0.29 0.36 0.40 0.39 0.45 0.55 0.73 0.78 0.89 0.93 1.10 1.11 1.03 1.00 0.98 0.90 0.91 1.07 1.17 1.13
0.61 0.54 0.48 0.45 0.47 0.48 0.48 0.48 0.47 0.46 0.42 0.35 0.33 0.33 0.31 0.27 0.18 0.15 0.16 0.22 0.28 0.27 0.29 0.33 0.31 0.27 0.31 0.41 0.59 0.79 0.92 0.97 1.07 1.26 1.23 1.19 1.10 1.04 0.91 0.90 1.11 1.27 1.25
0.45 0.44 0.44 0.44 0.46 0.44 0.43 0.45 0.43 0.39 0.38 0.36 0.36 0.35 0.30 0.23 0.16 0.11 0.11 0.16 0.22 0.27 0.33 0.38 0.36 0.30 0.31 0.37 0.52 0.72 0.89 0.94 1.15 1.42 1.32 1.15 1.07 1.00 0.96 0.98 1.07 1.13 1.10
0.40 0.42 0.45 0.43 0.39 0.36 0.41 0.45 0.40 0.41 0.42 0.42 0.41 0.36 0.29 0.21 0.15 0.12 0.09 0.09 0.13 0.29 0.43 0.39 0.36 0.36 0.35 0.42 0.57 0.74 0.88 1.06 1.24 1.34 1.15 0.98 0.88 0.84 0.86 0.81 0.77 0.78 0.84
0.40 0.46 0.46 0.40 0.44 0.41 0.38 0.39 0.38 0.40 0.37 0.34 0.35 0.32 0.30 0.25 0.20 0.14 0.12 0.11 0.14 0.24 0.38 0.40 0.39 0.38 0.48 0.68 0.81 0.92 1.06 1.25 1.30 1.16 1.01 0.89 0.75 0.70 0.65 0.64 0.64 0.66 0.69
0.40 0.43 0.42 0.43 0.47 0.47 0.40 0.29 0.27 0.29 0.27 0.26 0.28 0.30 0.32 0.32 0.24 0.18 0.19 0.20 0.22 0.27 0.36 0.48 0.54 0.57 0.73 0.94 1.10 1.20 1.28 1.31 1.16 1.02 0.92 0.79 0.65 0.63 0.61 0.56 0.60 0.62 0.66
0.34 0.36 0.37 0.39 0.41 0.45 0.39 0.24 0.16 0.14 0.11 0.15 0.20 0.22 0.29 0.28 0.18 0.16 0.18 0.21 0.24 0.28 0.34 0.52 0.66 0.71 0.84 1.00 1.14 1.22 1.26 1.25 1.15 1.00 0.88 0.77 0.68 0.62 0.58 0.50 0.50 0.52 0.56
0.32 0.29 0.23 0.23 0.27 0.29 0.31 0.27 0.14 0.06 0.04 0.05 0.07 0.10 0.12 0.15 0.13 0.12 0.15 0.20 0.24 0.31 0.41 0.63 0.74 0.74 0.81 0.90 1.01 1.10 1.10 1.06 0.99 0.95 0.90 0.83 0.74 0.63 0.59 0.53 0.49 0.49 0.54
0.26 0.23 0.15 0.12 0.16 0.20 0.22 0.30 0.28 0.15 0.06 0.04 0.03 0.06 0.08 0.09 0.11 0.12 0.15 0.20 0.24 0.34 0.47 0.66 0.77 0.82 0.85 0.88 0.90 0.94 0.99 0.98 0.90 0.85 0.81 0.75 0.66 0.59 0.55 0.52 0.48 0.46 0.46
0.14 0.11 0.11 0.13 0.13 0.14 0.15 0.17 0.22 0.28 0.26 0.20 0.09 0.06 0.08 0.11 0.14 0.14 0.17 0.21 0.28 0.33 0.48 0.64 0.75 0.81 0.85 0.86 0.84 0.82 0.85 0.87 0.81 0.73 0.68 0.64 0.58 0.54 0.51 0.48 0.44 0.37 0.36
0.14 0.13 0.10 0.09 0.08 0.08 0.09 0.10 0.14 0.19 0.22 0.24 0.21 0.14 0.12 0.15 0.18 0.18 0.22 0.29 0.35 0.37 0.44 0.57 0.67 0.73 0.73 0.73 0.74 0.74 0.74 0.75 0.70 0.64 0.62 0.59 0.55 0.51 0.45 0.38 0.32 0.24 0.27
0.08 0.05 0.05 0.06 0.06 0.06 0.06 0.08 0.10 0.16 0.19 0.21 0.23 0.22 0.18 0.27 0.38 0.35 0.31 0.34 0.36 0.36 0.41 0.52 0.61 0.63 0.61 0.57 0.56 0.57 0.56 0.56 0.57 0.56 0.54 0.52 0.49 0.43 0.35 0.29 0.26 0.26 0.27
0.04 0.03 0.02 0.04 0.05 0.05 0.05 0.04 0.06 0.11 0.15 0.19 0.16 0.16 0.24 0.33 0.42 0.42 0.40 0.43 0.44 0.41 0.41 0.45 0.50 0.53 0.52 0.48 0.45 0.41 0.40 0.43 0.44 0.45 0.46 0.45 0.39 0.34 0.29 0.23 0.20 0.18 0.19
0.03 0.03 0.03 0.03 0.04 0.04 0.04 0.04 0.04 0.05 0.08 0.14 0.14 0.14 0.24 0.29 0.35 0.39 0.42 0.46 0.49 0.47 0.43 0.44 0.46 0.46 0.44 0.41 0.38 0.35 0.33 0.35 0.36 0.38 0.40 0.38 0.33 0.27 0.21 0.17 0.14 0.13 0.13
0.02 0.03 0.03 0.03 0.03 0.03 0.04 0.05 0.04 0.04 0.05 0.10 0.11 0.14 0.21 0.29 0.34 0.40 0.46 0.48 0.49 0.51 0.46 0.42 0.47 0.48 0.41 0.36 0.33 0.31 0.30 0.30 0.28 0.32 0.38 0.39 0.32 0.24 0.18 0.14 0.11 0.09 0.08
0.02 0.02 0.03 0.03 0.03 0.04 0.05 0.05 0.04 0.03 0.04 0.06 0.09 0.12 0.17 0.23 0.28 0.34 0.41 0.46 0.50 0.51 0.50 0.50 0.52 0.49 0.41 0.35 0.31 0.29 0.30 0.31 0.29 0.31 0.33 0.35 0.30 0.22 0.16 0.13 0.11 0.10 0.10
0.02 0.02 0.03 0.03 0.02 0.02 0.03 0.04 0.03 0.03 0.04 0.05 0.06 0.09 0.13 0.15 0.18 0.23 0.30 0.35 0.40 0.43 0.45 0.47 0.47 0.42 0.36 0.32 0.29 0.28 0.31 0.29 0.24 0.26 0.32 0.35 0.28 0.21 0.17 0.14 0.12 0.11 0.11
0.01 0.02 0.02 0.02 0.02 0.01 0.02 0.02 0.02 0.03 0.04 0.04 0.05 0.07 0.10 0.12 0.16 0.19 0.22 0.25 0.28 0.32 0.35 0.40 0.39 0.32 0.25 0.22 0.22 0.20 0.17 0.14 0.13 0.15 0.25 0.29 0.24 0.20 0.20 0.17 0.13 0.12 0.14